CSN6480 ZSHC-ZGSZ

Flight info

Callsign CSN6480
Flight time 1h 20m
Altitude 36100
Route UGAGO5E UGAGO A470 BEBEM R200 GUBLO
Aircraft A320/M-SDE3FGHIRWY/LB1

Departure

Time 2026-05-07 11:10
Airport Hangzhou Xiaoshan International Airport (ZSHC)

Arrival

Time 2026-05-07 12:30
Airport Shenzhen Bao'an International Airport (ZGSZ)
Time Latitude Longitude Altitude Speed Heading
2026-05-07 10:46 30.24042 120.42659 32 ft 0 kts 69°
2026-05-07 10:54 30.24040 120.42653 32 ft 4 kts 73°
2026-05-07 10:55 30.24034 120.42629 32 ft 3 kts 46°
2026-05-07 10:55 30.24019 120.42612 30 ft 4 kts 17°
2026-05-07 10:55 30.24002 120.42617 31 ft 4 kts 301°
2026-05-07 10:55 30.23989 120.42641 32 ft 2 kts 310°
2026-05-07 10:56 30.23988 120.42642 32 ft 0 kts 310°
2026-05-07 10:57 30.23989 120.42641 32 ft 0 kts 310°
2026-05-07 10:59 30.23991 120.42638 32 ft 2 kts 311°
2026-05-07 10:59 30.24016 120.42613 30 ft 7 kts 328°
2026-05-07 10:59 30.24065 120.42585 31 ft 9 kts 334°
2026-05-07 10:59 30.24127 120.42549 32 ft 10 kts 333°
2026-05-07 11:00 30.24169 120.42529 32 ft 7 kts 353°
2026-05-07 11:00 30.24202 120.42569 32 ft 8 kts 64°
2026-05-07 11:00 30.24247 120.42670 32 ft 19 kts 62°
2026-05-07 11:00 30.24316 120.42818 32 ft 22 kts 60°
2026-05-07 11:01 30.24391 120.42981 32 ft 24 kts 63°
2026-05-07 11:01 30.24470 120.43160 32 ft 26 kts 63°
2026-05-07 11:01 30.24528 120.43293 32 ft 11 kts 63°
2026-05-07 11:01 30.24500 120.43363 32 ft 12 kts 154°
2026-05-07 11:02 30.24419 120.43410 32 ft 14 kts 153°
2026-05-07 11:02 30.24326 120.43465 32 ft 16 kts 152°
2026-05-07 11:02 30.24219 120.43529 32 ft 18 kts 153°
2026-05-07 11:02 30.24099 120.43599 31 ft 20 kts 153°
2026-05-07 11:03 30.23966 120.43678 32 ft 23 kts 153°
2026-05-07 11:03 30.23818 120.43764 32 ft 25 kts 153°
2026-05-07 11:03 30.23656 120.43858 31 ft 27 kts 153°
2026-05-07 11:03 30.23517 120.43940 32 ft 14 kts 153°
2026-05-07 11:04 30.23457 120.43938 32 ft 10 kts 231°
2026-05-07 11:04 30.23419 120.43853 34 ft 16 kts 243°
2026-05-07 11:04 30.23365 120.43731 32 ft 19 kts 243°
2026-05-07 11:04 30.23299 120.43582 32 ft 22 kts 243°
2026-05-07 11:05 30.23224 120.43416 32 ft 24 kts 243°
2026-05-07 11:05 30.23144 120.43235 32 ft 26 kts 243°
2026-05-07 11:05 30.23058 120.43043 32 ft 24 kts 243°
2026-05-07 11:05 30.23014 120.42947 32 ft 10 kts 231°
2026-05-07 11:06 30.22945 120.42945 32 ft 11 kts 181°
2026-05-07 11:06 30.22893 120.42872 32 ft 14 kts 243°
2026-05-07 11:06 30.22831 120.42732 32 ft 23 kts 243°
2026-05-07 11:06 30.22757 120.42565 32 ft 25 kts 242°
2026-05-07 11:07 30.22676 120.42382 32 ft 26 kts 242°
2026-05-07 11:07 30.22589 120.42186 32 ft 28 kts 243°
2026-05-07 11:07 30.22501 120.41989 32 ft 26 kts 243°
2026-05-07 11:07 30.22437 120.41845 32 ft 14 kts 243°
2026-05-07 11:08 30.22397 120.41754 33 ft 14 kts 243°
2026-05-07 11:08 30.22339 120.41715 32 ft 11 kts 159°
2026-05-07 11:08 30.22260 120.41764 30 ft 13 kts 152°
2026-05-07 11:08 30.22230 120.41815 30 ft 9 kts 71°
2026-05-07 11:09 30.22239 120.41833 30 ft 0 kts 63°
2026-05-07 11:09 30.22244 120.41845 30 ft 16 kts 63°
2026-05-07 11:09 30.22414 120.42227 33 ft 87 kts 63°
2026-05-07 11:09 30.22777 120.43047 32 ft 139 kts 62°
2026-05-07 11:10 30.23281 120.44182 65 ft 175 kts 61°
2026-05-07 11:10 30.23806 120.45420 697 ft 170 kts 63°
2026-05-07 11:10 30.24057 120.46720 1282 ft 180 kts 89°
2026-05-07 11:10 30.23806 120.48248 1751 ft 197 kts 99°
2026-05-07 11:11 30.23619 120.49039 1998 ft 202 kts 102°
2026-05-07 11:11 30.23423 120.49989 2456 ft 194 kts 96°
2026-05-07 11:11 30.23219 120.51543 2944 ft 198 kts 90°
2026-05-07 11:11 30.23098 120.53195 3239 ft 218 kts 90°
2026-05-07 11:12 30.22967 120.55048 3582 ft 244 kts 94°
2026-05-07 11:12 30.22371 120.56996 4021 ft 273 kts 122°
2026-05-07 11:12 30.20960 120.58511 4802 ft 284 kts 149°
2026-05-07 11:12 30.19200 120.59569 5765 ft 285 kts 153°
2026-05-07 11:13 30.17356 120.60300 6667 ft 286 kts 175°
2026-05-07 11:13 30.15406 120.60053 7534 ft 283 kts 202°
2026-05-07 11:13 30.13768 120.58848 8436 ft 280 kts 228°
2026-05-07 11:13 30.12710 120.56987 9335 ft 277 kts 244°
2026-05-07 11:14 30.11837 120.55005 10248 ft 277 kts 244°
2026-05-07 11:14 30.10965 120.53020 11049 ft 278 kts 244°
2026-05-07 11:14 30.10088 120.51025 11837 ft 280 kts 245°
2026-05-07 11:14 30.09202 120.49016 12616 ft 282 kts 245°
2026-05-07 11:15 30.08307 120.46994 13381 ft 284 kts 245°
2026-05-07 11:15 30.07404 120.44961 14095 ft 286 kts 246°
2026-05-07 11:15 30.06505 120.42943 14742 ft 288 kts 246°
2026-05-07 11:15 30.05585 120.40882 15380 ft 290 kts 246°
2026-05-07 11:16 30.04659 120.38805 16054 ft 292 kts 246°
2026-05-07 11:16 30.03704 120.36654 16248 ft 311 kts 246°
2026-05-07 11:16 30.02691 120.34371 16372 ft 328 kts 245°
2026-05-07 11:16 30.01627 120.31980 16692 ft 339 kts 245°
2026-05-07 11:17 30.00552 120.29579 17207 ft 343 kts 245°
2026-05-07 11:17 29.99449 120.27125 17586 ft 346 kts 245°
2026-05-07 11:17 29.98321 120.24674 17672 ft 346 kts 245°
2026-05-07 11:17 29.97172 120.22236 17679 ft 346 kts 244°
2026-05-07 11:18 29.96011 120.19806 17678 ft 346 kts 244°
2026-05-07 11:18 29.94851 120.17382 17677 ft 347 kts 244°
2026-05-07 11:18 29.93683 120.14938 17681 ft 348 kts 244°
2026-05-07 11:18 29.92517 120.12492 17682 ft 348 kts 244°
2026-05-07 11:19 29.89070 120.05248 17684 ft 346 kts 244°
2026-05-07 11:19 29.85048 119.96840 17695 ft 347 kts 241°
2026-05-07 11:19 29.83612 119.94638 17692 ft 350 kts 234°
2026-05-07 11:19 29.79509 119.88848 17656 ft 350 kts 234°
2026-05-07 11:20 29.73364 119.80123 17566 ft 351 kts 234°
2026-05-07 11:20 29.68628 119.73382 17650 ft 358 kts 234°
2026-05-07 11:20 29.67069 119.71173 17857 ft 357 kts 234°
2026-05-07 11:20 29.65489 119.68969 18468 ft 359 kts 231°
2026-05-07 11:21 29.63599 119.67053 18957 ft 369 kts 218°
2026-05-07 11:21 29.61296 119.65687 19489 ft 378 kts 205°
2026-05-07 11:21 29.58705 119.64992 19996 ft 389 kts 191°
2026-05-07 11:21 29.56009 119.64887 20476 ft 395 kts 186°
2026-05-07 11:22 29.53254 119.64815 20955 ft 397 kts 187°
2026-05-07 11:22 29.50490 119.64678 21424 ft 399 kts 188°
2026-05-07 11:22 29.47712 119.64498 21889 ft 401 kts 189°
2026-05-07 11:22 29.44917 119.64296 22335 ft 404 kts 190°
2026-05-07 11:23 29.42104 119.64093 22763 ft 407 kts 189°
2026-05-07 11:23 29.35004 119.63626 23649 ft 415 kts 189°
2026-05-07 11:23 29.23533 119.62940 23557 ft 415 kts 188°
2026-05-07 11:23 29.12233 119.62255 23533 ft 411 kts 188°
2026-05-07 11:24 29.00830 119.61557 23602 ft 410 kts 188°
2026-05-07 11:24 28.89445 119.60829 23570 ft 411 kts 188°
2026-05-07 11:24 28.78041 119.60124 23569 ft 409 kts 187°
2026-05-07 11:24 28.66645 119.59419 23583 ft 410 kts 187°
2026-05-07 11:25 28.55261 119.58713 23555 ft 411 kts 188°
2026-05-07 11:25 28.43785 119.58014 24385 ft 418 kts 188°
2026-05-07 11:25 28.32023 119.57363 25820 ft 429 kts 188°
2026-05-07 11:25 28.19992 119.56707 27175 ft 437 kts 189°
2026-05-07 11:26 28.07847 119.56055 28333 ft 448 kts 188°
2026-05-07 11:26 27.95274 119.55914 29684 ft 456 kts 185°
2026-05-07 11:26 27.82625 119.55832 30011 ft 438 kts 185°
2026-05-07 11:26 27.70513 119.55767 30124 ft 439 kts 186°
2026-05-07 11:27 27.46027 119.55629 30029 ft 439 kts 184°
2026-05-07 11:27 27.33918 119.55603 30065 ft 441 kts 184°
2026-05-07 11:28 27.27832 119.55593 30056 ft 441 kts 185°
2026-05-07 11:28 27.24770 119.55288 30062 ft 443 kts 198°
2026-05-07 11:28 27.21890 119.54097 30049 ft 442 kts 209°
2026-05-07 11:29 27.16405 119.51049 30053 ft 431 kts 213°
2026-05-07 11:29 27.11327 119.47613 30060 ft 424 kts 216°
2026-05-07 11:30 27.06004 119.44818 30048 ft 432 kts 199°
2026-05-07 11:30 27.03023 119.44232 30054 ft 439 kts 188°
2026-05-07 11:30 26.99950 119.44179 30055 ft 443 kts 184°
2026-05-07 11:31 26.84652 119.44119 30053 ft 445 kts 185°
2026-05-07 11:31 26.61341 119.43982 30055 ft 445 kts 184°
2026-05-07 11:32 26.55378 119.43047 30058 ft 430 kts 209°
2026-05-07 11:32 26.52671 119.41641 30028 ft 431 kts 204°
2026-05-07 11:32 26.49738 119.40875 30029 ft 438 kts 187°
2026-05-07 11:33 26.46679 119.41121 30025 ft 445 kts 173°
2026-05-07 11:33 26.35324 119.42027 30024 ft 442 kts 184°
2026-05-07 11:34 26.25285 119.41052 29997 ft 427 kts 211°
2026-05-07 11:34 26.20103 119.37988 30005 ft 429 kts 204°
2026-05-07 11:35 26.10266 119.35358 30017 ft 434 kts 197°
2026-05-07 11:35 26.04423 119.33700 30021 ft 433 kts 200°
2026-05-07 11:36 25.82987 119.26225 30001 ft 427 kts 210°
2026-05-07 11:36 25.74448 119.17848 30045 ft 416 kts 230°
2026-05-07 11:36 25.66507 119.08492 30045 ft 416 kts 230°
2026-05-07 11:37 25.50670 118.89750 30048 ft 417 kts 229°
2026-05-07 11:37 25.34964 118.70958 30045 ft 414 kts 230°
2026-05-07 11:38 25.19366 118.52151 30032 ft 416 kts 230°
2026-05-07 11:38 25.03399 118.33810 30001 ft 417 kts 229°
2026-05-07 11:39 24.87260 118.15380 30025 ft 418 kts 228°
2026-05-07 11:39 24.71046 117.96936 30024 ft 419 kts 228°
2026-05-07 11:40 24.55196 117.78164 30005 ft 418 kts 230°
2026-05-07 11:40 24.39635 117.59423 30004 ft 418 kts 229°
2026-05-07 11:41 24.23942 117.40633 30009 ft 418 kts 230°
2026-05-07 11:41 24.06517 117.23385 30048 ft 424 kts 224°
2026-05-07 11:42 23.94100 117.11269 30000 ft 425 kts 224°
2026-05-07 11:42 23.89693 117.06969 30037 ft 428 kts 225°
2026-05-07 11:43 23.85264 117.02626 30036 ft 428 kts 226°
2026-05-07 11:43 23.81069 116.98029 30038 ft 427 kts 230°
2026-05-07 11:44 23.77037 116.93276 30036 ft 426 kts 230°
2026-05-07 11:44 23.73007 116.88587 30031 ft 426 kts 229°
2026-05-07 11:45 23.68899 116.83923 30020 ft 427 kts 230°
2026-05-07 11:45 23.64762 116.79257 30007 ft 429 kts 230°
2026-05-07 11:46 23.60614 116.74571 30005 ft 430 kts 230°
2026-05-07 11:46 23.56496 116.69901 30005 ft 430 kts 230°
2026-05-07 11:47 23.52237 116.65295 30008 ft 435 kts 222°
2026-05-07 11:47 23.47370 116.61365 30035 ft 435 kts 220°
2026-05-07 11:48 23.42520 116.57457 30046 ft 432 kts 220°
2026-05-07 11:48 23.37722 116.53586 30022 ft 433 kts 220°
2026-05-07 11:49 23.32874 116.49678 30009 ft 434 kts 220°
2026-05-07 11:49 23.28057 116.45719 30006 ft 433 kts 226°
2026-05-07 11:49 23.26114 116.43261 30008 ft 427 kts 237°
2026-05-07 11:50 23.24390 116.40634 30012 ft 427 kts 237°
2026-05-07 11:50 23.20986 116.35408 30031 ft 426 kts 237°
2026-05-07 11:51 23.17573 116.30152 30038 ft 425 kts 238°
2026-05-07 11:51 23.14157 116.24906 30038 ft 425 kts 237°
2026-05-07 11:52 23.10744 116.19685 30044 ft 424 kts 237°
2026-05-07 11:52 23.07331 116.14474 30053 ft 423 kts 237°
2026-05-07 11:53 23.03946 116.09320 30052 ft 422 kts 237°
2026-05-07 11:53 23.00540 116.04132 30050 ft 422 kts 237°
2026-05-07 11:54 22.97139 115.98947 30046 ft 421 kts 237°
2026-05-07 11:54 22.93735 115.93773 30057 ft 421 kts 238°
2026-05-07 11:55 22.90722 115.88427 30047 ft 416 kts 250°
2026-05-07 11:55 22.89841 115.85456 29799 ft 410 kts 259°
2026-05-07 11:55 22.89434 115.82425 29400 ft 404 kts 265°
2026-05-07 11:55 22.89131 115.79405 29007 ft 401 kts 265°
2026-05-07 11:56 22.88825 115.76405 28622 ft 399 kts 265°
2026-05-07 11:56 22.88514 115.73427 28238 ft 396 kts 265°
2026-05-07 11:56 22.88202 115.70465 27862 ft 394 kts 265°
2026-05-07 11:56 22.87891 115.67523 27489 ft 392 kts 264°
2026-05-07 11:57 22.87584 115.64636 27124 ft 390 kts 264°
2026-05-07 11:57 22.87276 115.61725 26762 ft 388 kts 265°
2026-05-07 11:57 22.86967 115.58821 26402 ft 387 kts 265°
2026-05-07 11:57 22.86663 115.55934 26049 ft 384 kts 265°
2026-05-07 11:58 22.86372 115.53061 25704 ft 382 kts 265°
2026-05-07 11:58 22.86090 115.50207 25354 ft 380 kts 265°
2026-05-07 11:58 22.85809 115.47368 25013 ft 378 kts 265°
2026-05-07 11:58 22.85531 115.44544 24673 ft 376 kts 265°
2026-05-07 11:59 22.85252 115.41735 24332 ft 374 kts 265°
2026-05-07 11:59 22.84974 115.38978 24008 ft 372 kts 265°
2026-05-07 11:59 22.84690 115.36201 23683 ft 370 kts 264°
2026-05-07 11:59 22.84406 115.33435 23329 ft 368 kts 264°
2026-05-07 12:00 22.84124 115.30684 22948 ft 367 kts 265°
2026-05-07 12:00 22.83844 115.27957 22565 ft 364 kts 265°
2026-05-07 12:00 22.83568 115.25240 22185 ft 361 kts 265°
2026-05-07 12:00 22.83295 115.22540 21813 ft 359 kts 264°
2026-05-07 12:01 22.83023 115.19857 21443 ft 357 kts 264°
2026-05-07 12:01 22.82749 115.17187 21078 ft 356 kts 264°
2026-05-07 12:01 22.82479 115.14565 20727 ft 354 kts 264°
2026-05-07 12:01 22.82206 115.11926 20366 ft 352 kts 264°
2026-05-07 12:02 22.81932 115.09297 20015 ft 350 kts 264°
2026-05-07 12:02 22.81661 115.06685 19667 ft 348 kts 264°
2026-05-07 12:02 22.81393 115.04086 19324 ft 346 kts 264°
2026-05-07 12:02 22.81126 115.01499 18985 ft 344 kts 264°
2026-05-07 12:03 22.80859 114.98925 18648 ft 343 kts 264°
2026-05-07 12:03 22.80590 114.96360 18316 ft 341 kts 264°
2026-05-07 12:03 22.80484 114.93803 17947 ft 339 kts 277°
2026-05-07 12:03 22.81182 114.91419 17616 ft 339 kts 298°
2026-05-07 12:04 22.82706 114.89468 17363 ft 344 kts 319°
2026-05-07 12:04 22.84832 114.88263 17112 ft 351 kts 341°
2026-05-07 12:04 22.87270 114.87993 16863 ft 357 kts
2026-05-07 12:04 22.89671 114.88722 16654 ft 364 kts 24°
2026-05-07 12:05 22.91694 114.90382 16609 ft 370 kts 46°
2026-05-07 12:05 22.93061 114.92751 16622 ft 375 kts 68°
2026-05-07 12:05 22.93587 114.95511 16629 ft 376 kts 90°
2026-05-07 12:05 22.93431 114.97372 16623 ft 375 kts 104°
2026-05-07 12:06 22.91965 115.00704 16619 ft 370 kts 132°
2026-05-07 12:06 22.90033 115.02493 16624 ft 364 kts 154°
2026-05-07 12:06 22.87686 115.03395 16628 ft 356 kts 176°
2026-05-07 12:06 22.85258 115.03306 16629 ft 348 kts 197°
2026-05-07 12:07 22.83086 115.02265 16630 ft 340 kts 219°
2026-05-07 12:07 22.81941 115.01128 16628 ft 337 kts 233°
2026-05-07 12:07 22.80832 114.98925 16624 ft 334 kts 255°
2026-05-07 12:07 22.80605 114.96445 16625 ft 333 kts 276°
2026-05-07 12:08 22.81697 114.93365 16626 ft 337 kts 305°
2026-05-07 12:08 22.83420 114.91631 16624 ft 342 kts 323°
2026-05-07 12:08 22.85449 114.90263 16624 ft 344 kts 326°
2026-05-07 12:08 22.87503 114.88931 16624 ft 344 kts 326°
2026-05-07 12:09 22.88865 114.88050 16623 ft 344 kts 326°
2026-05-07 12:09 22.90923 114.86721 16624 ft 344 kts 326°
2026-05-07 12:09 22.92981 114.85393 16621 ft 344 kts 326°
2026-05-07 12:09 22.94912 114.83893 16622 ft 339 kts 311°
2026-05-07 12:10 22.96437 114.81017 16626 ft 333 kts 282°
2026-05-07 12:10 22.96626 114.79344 16622 ft 332 kts 268°
2026-05-07 12:10 22.96136 114.76910 16615 ft 333 kts 246°
2026-05-07 12:10 22.94820 114.74879 16620 ft 338 kts 225°
2026-05-07 12:11 22.92871 114.73425 16620 ft 343 kts 212°
2026-05-07 12:11 22.90772 114.72178 16620 ft 344 kts 211°
2026-05-07 12:11 22.88685 114.70922 16619 ft 343 kts 216°
2026-05-07 12:11 22.86855 114.69291 16355 ft 339 kts 228°
2026-05-07 12:12 22.85351 114.67357 15999 ft 334 kts 236°
2026-05-07 12:12 22.84056 114.65283 15642 ft 331 kts 239°
2026-05-07 12:12 22.82821 114.63185 15274 ft 329 kts 239°
2026-05-07 12:12 22.81563 114.61115 14920 ft 328 kts 238°
2026-05-07 12:13 22.80279 114.59121 14588 ft 327 kts 236°
2026-05-07 12:13 22.78941 114.57142 14248 ft 325 kts 235°
2026-05-07 12:13 22.77583 114.55194 13910 ft 323 kts 236°
2026-05-07 12:13 22.76413 114.53130 13557 ft 320 kts 245°
2026-05-07 12:14 22.75603 114.50900 13166 ft 318 kts 255°
2026-05-07 12:14 22.75056 114.48586 12790 ft 316 kts 256°
2026-05-07 12:14 22.74517 114.46285 12419 ft 315 kts 256°
2026-05-07 12:14 22.73978 114.43993 12055 ft 313 kts 256°
2026-05-07 12:15 22.73450 114.41746 11705 ft 311 kts 256°
2026-05-07 12:15 22.72920 114.39479 11319 ft 310 kts 256°
2026-05-07 12:15 22.72392 114.37220 10730 ft 308 kts 256°
2026-05-07 12:15 22.71867 114.34981 10153 ft 306 kts 256°
2026-05-07 12:16 22.71410 114.32752 9543 ft 300 kts 264°
2026-05-07 12:16 22.71354 114.30520 8930 ft 293 kts 269°
2026-05-07 12:16 22.71331 114.28331 8315 ft 288 kts 269°
2026-05-07 12:16 22.71304 114.26173 7710 ft 285 kts 269°
2026-05-07 12:17 22.71279 114.24070 7215 ft 281 kts 269°
2026-05-07 12:17 22.71254 114.21976 6996 ft 276 kts 269°
2026-05-07 12:17 22.71296 114.19909 6711 ft 274 kts 279°
2026-05-07 12:17 22.71933 114.17984 6409 ft 273 kts 298°
2026-05-07 12:18 22.72868 114.16194 6068 ft 273 kts 299°
2026-05-07 12:18 22.73808 114.14409 5730 ft 273 kts 299°
2026-05-07 12:18 22.74747 114.12627 5393 ft 272 kts 299°
2026-05-07 12:18 22.75683 114.10848 5076 ft 271 kts 299°
2026-05-07 12:19 22.76597 114.09070 4894 ft 270 kts 297°
2026-05-07 12:19 22.77447 114.07318 4898 ft 272 kts 297°
2026-05-07 12:19 22.78303 114.05503 4900 ft 271 kts 296°
2026-05-07 12:19 22.79158 114.03679 4900 ft 272 kts 296°
2026-05-07 12:20 22.80015 114.01854 4901 ft 271 kts 296°
2026-05-07 12:20 22.80858 114.00066 4899 ft 260 kts 296°
2026-05-07 12:20 22.81662 113.98368 4899 ft 246 kts 296°
2026-05-07 12:20 22.82420 113.96772 4900 ft 230 kts 296°
2026-05-07 12:21 22.83139 113.95257 4896 ft 224 kts 296°
2026-05-07 12:21 22.83839 113.93777 4899 ft 224 kts 296°
2026-05-07 12:21 22.85277 113.90733 4913 ft 223 kts 296°
2026-05-07 12:21 22.88108 113.84750 4914 ft 225 kts 296°
2026-05-07 12:22 22.90422 113.79868 4910 ft 225 kts 296°
2026-05-07 12:22 22.91097 113.78344 4818 ft 224 kts 289°
2026-05-07 12:22 22.91427 113.76726 4624 ft 217 kts 273°
2026-05-07 12:22 22.91363 113.75111 4321 ft 213 kts 258°
2026-05-07 12:23 22.90937 113.73614 4071 ft 203 kts 244°
2026-05-07 12:23 22.90308 113.72301 3882 ft 194 kts 241°
2026-05-07 12:23 22.89691 113.71038 3657 ft 185 kts 237°
2026-05-07 12:23 22.88871 113.70013 3436 ft 177 kts 217°
2026-05-07 12:24 22.87843 113.69377 3337 ft 164 kts 199°
2026-05-07 12:24 22.86772 113.69133 3286 ft 151 kts 182°
2026-05-07 12:24 22.85648 113.69245 3317 ft 179 kts 166°
2026-05-07 12:24 22.84468 113.69782 3308 ft 188 kts 154°
2026-05-07 12:25 22.83299 113.70428 3298 ft 189 kts 153°
2026-05-07 12:25 22.82122 113.71076 3295 ft 191 kts 153°
2026-05-07 12:25 22.80936 113.71729 3239 ft 190 kts 154°
2026-05-07 12:25 22.79782 113.72363 3045 ft 188 kts 154°
2026-05-07 12:26 22.78613 113.73006 2820 ft 188 kts 154°
2026-05-07 12:26 22.77458 113.73640 2591 ft 185 kts 154°
2026-05-07 12:26 22.76314 113.74268 2347 ft 181 kts 154°
2026-05-07 12:26 22.75240 113.74859 2133 ft 164 kts 155°
2026-05-07 12:27 22.74273 113.75391 1934 ft 147 kts 154°
2026-05-07 12:27 22.73391 113.75874 1741 ft 138 kts 154°
2026-05-07 12:27 22.72544 113.76339 1566 ft 135 kts 154°
2026-05-07 12:27 22.71718 113.76791 1391 ft 135 kts 154°
2026-05-07 12:28 22.70884 113.77249 1215 ft 135 kts 154°
2026-05-07 12:28 22.70044 113.77709 1051 ft 135 kts 154°
2026-05-07 12:28 22.69205 113.78170 888 ft 134 kts 154°
2026-05-07 12:28 22.68364 113.78627 738 ft 136 kts 155°
2026-05-07 12:29 22.67520 113.79088 527 ft 136 kts 155°
2026-05-07 12:29 22.66690 113.79550 374 ft 136 kts 155°
2026-05-07 12:29 22.65846 113.80010 175 ft 135 kts 155°
2026-05-07 12:29 22.65014 113.80464 19 ft 131 kts 155°
2026-05-07 12:30 22.64331 113.80833 15 ft 85 kts 154°
2026-05-07 12:30 22.63963 113.81042 15 ft 35 kts 154°
2026-05-07 12:30 22.63751 113.81158 15 ft 32 kts 153°
2026-05-07 12:30 22.63589 113.81240 15 ft 25 kts 164°
2026-05-07 12:31 22.63420 113.81250 15 ft 18 kts 185°
2026-05-07 12:31 22.63335 113.81243 15 ft 12 kts 190°
2026-05-07 12:31 22.63337 113.81168 17 ft 12 kts 321°
2026-05-07 12:31 22.63422 113.81123 15 ft 15 kts 333°
2026-05-07 12:32 22.63525 113.81065 15 ft 18 kts 333°
2026-05-07 12:32 22.63646 113.80999 15 ft 21 kts 333°
2026-05-07 12:32 22.63786 113.80921 15 ft 24 kts 332°
2026-05-07 12:32 22.63947 113.80833 15 ft 27 kts 333°
2026-05-07 12:33 22.64156 113.80719 15 ft 15 kts 332°
2026-05-07 12:33 22.64202 113.80676 15 ft 9 kts 283°
2026-05-07 12:33 22.64178 113.80605 15 ft 12 kts 246°
2026-05-07 12:34 22.64135 113.80517 15 ft 15 kts 242°
2026-05-07 12:34 22.64080 113.80408 15 ft 18 kts 242°
2026-05-07 12:34 22.64023 113.80276 15 ft 20 kts 244°
2026-05-07 12:34 22.63968 113.80157 15 ft 10 kts 243°
2026-05-07 12:35 22.63959 113.80138 15 ft 2 kts 243°
2026-05-07 12:35 22.63948 113.80116 15 ft 5 kts 243°
2026-05-07 12:35 22.63937 113.80092 15 ft 1 kts 243°
2026-05-07 12:35 22.63937 113.80091 15 ft 0 kts 243°
2026-05-07 12:37 22.63930 113.80076 16 ft 7 kts 243°
2026-05-07 12:37 22.63890 113.79992 16 ft 16 kts 243°
2026-05-07 12:38 22.63844 113.79894 16 ft 15 kts 243°
2026-05-07 12:38 22.63814 113.79823 16 ft 5 kts 263°
2026-05-07 12:38 22.63842 113.79796 16 ft 6 kts
2026-05-07 12:38 22.63881 113.79821 16 ft 7 kts 29°
2026-05-07 12:39 22.63916 113.79834 16 ft 0 kts 18°
2026-05-07 12:39 22.63929 113.79839 17 ft 3 kts 18°
2026-05-07 12:39 22.63940 113.79843 16 ft 0 kts 19°